Location: Newark
(3.0500°N, 36.0167°E)
Time: 13:03:54
(UTC+00:00)

Transit 2A Rocket - Pass Details

Date: 26 August 2019
Orbit: 592 x 911 km, 66.7° (Epoch: 15 September)

Event Time Altitude Azimuth Distance (km) Brightness Sun altitude
Rises 13:13:42 0° 170° (S) 3,532 8.3 36.0°
Reaches altitude 10° 13:17:01 10° 152° (SSE) 2,594 7.5 35.2°
Maximum altitude 13:21:06 19° 110° (ESE) 2,028 6.9 34.2°
Drops below altitude 10° 13:25:06 10° 67° (ENE) 2,545 7.4 33.2°
Sets 13:28:18 0° 50° (NE) 3,443 8.0 32.4°
